Location: A�t �Alizem
(31.2076°N, 8.7872°W)
Time: 07:38:49
(UTC+00:00)

Envisat - Pass Details

Date: 30 September 2021
Orbit: 764 x 766 km, 98.2° (Epoch: 25 October)

Event Time Altitude Azimuth Distance (km) Brightness Sun altitude
Rises 04:16:39 0° 41° (NE) 3,230 7.0 -28.7°
Reaches altitude 10° 04:21:03 10° 77° (ENE) 2,298 6.4 -27.8°
Maximum altitude 04:22:19 11° 92° (E) 2,236 6.3 -27.5°
Drops below altitude 10° 04:23:35 10° 107° (ESE) 2,295 6.2 -27.3°
Sets 04:27:56 0° 143° (SE) 3,214 6.5 -26.4°
